UAE5CL NZCH-YSSY

Flight info

Callsign UAE5CL
Flight time 3h 2m
Altitude 40000
Route VANDA N750 PLUGA DCT RIKNI N774 MARLN
Aircraft A388/J-SADE2E3FGHIJ3J4J5M1RWXY/LB1D1

Departure

Time 2026-05-06 22:31
Airport Christchurch International Airport (NZCH)

Arrival

Time 2026-05-07 01:33
Airport Sydney Kingsford Smith International Airport (YSSY)
Time Latitude Longitude Altitude Speed Heading
2026-05-06 22:10 -43.48615 172.54078 114 ft 0 kts 206°
2026-05-06 22:20 -43.48614 172.54079 114 ft 1 kts 206°
2026-05-06 22:20 -43.48608 172.54083 112 ft 1 kts 206°
2026-05-06 22:20 -43.48598 172.54090 109 ft 2 kts 206°
2026-05-06 22:20 -43.48587 172.54098 109 ft 2 kts 212°
2026-05-06 22:21 -43.48578 172.54110 109 ft 2 kts 226°
2026-05-06 22:21 -43.48571 172.54125 109 ft 2 kts 244°
2026-05-06 22:21 -43.48569 172.54142 109 ft 2 kts 266°
2026-05-06 22:21 -43.48572 172.54158 109 ft 2 kts 287°
2026-05-06 22:22 -43.48576 172.54174 109 ft 2 kts 293°
2026-05-06 22:22 -43.48583 172.54189 109 ft 2 kts 309°
2026-05-06 22:22 -43.48584 172.54190 109 ft 0 kts 310°
2026-05-06 22:23 -43.48580 172.54183 109 ft 3 kts 311°
2026-05-06 22:23 -43.48552 172.54143 109 ft 7 kts 313°
2026-05-06 22:23 -43.48547 172.54135 113 ft 0 kts 312°
2026-05-06 22:25 -43.48533 172.54114 109 ft 6 kts 311°
2026-05-06 22:25 -43.48507 172.54058 111 ft 7 kts 278°
2026-05-06 22:25 -43.48522 172.53984 109 ft 9 kts 232°
2026-05-06 22:25 -43.48582 172.53905 111 ft 15 kts 220°
2026-05-06 22:26 -43.48674 172.53801 111 ft 20 kts 220°
2026-05-06 22:26 -43.48780 172.53678 112 ft 20 kts 220°
2026-05-06 22:26 -43.48874 172.53569 112 ft 13 kts 217°
2026-05-06 22:26 -43.48957 172.53486 113 ft 16 kts 219°
2026-05-06 22:27 -43.49056 172.53372 114 ft 22 kts 220°
2026-05-06 22:27 -43.49179 172.53231 116 ft 24 kts 220°
2026-05-06 22:27 -43.49307 172.53083 123 ft 21 kts 220°
2026-05-06 22:27 -43.49418 172.52954 126 ft 21 kts 220°
2026-05-06 22:28 -43.49528 172.52827 130 ft 21 kts 220°
2026-05-06 22:28 -43.49651 172.52683 126 ft 25 kts 219°
2026-05-06 22:28 -43.49764 172.52555 128 ft 7 kts 219°
2026-05-06 22:28 -43.49794 172.52487 132 ft 11 kts 259°
2026-05-06 22:29 -43.49794 172.52369 132 ft 14 kts 276°
2026-05-06 22:29 -43.49763 172.52246 125 ft 11 kts 347°
2026-05-06 22:29 -43.49707 172.52275 124 ft 0 kts 40°
2026-05-06 22:30 -43.49654 172.52336 126 ft 41 kts 40°
2026-05-06 22:30 -43.49231 172.52824 122 ft 113 kts 40°
2026-05-06 22:30 -43.48504 172.53662 114 ft 156 kts 40°
2026-05-06 22:30 -43.47655 172.54620 460 ft 161 kts 40°
2026-05-06 22:31 -43.46761 172.55595 892 ft 166 kts 34°
2026-05-06 22:31 -43.45784 172.56302 1486 ft 155 kts 20°
2026-05-06 22:31 -43.44747 172.56833 2004 ft 165 kts 17°
2026-05-06 22:31 -43.43624 172.57419 2263 ft 183 kts 17°
2026-05-06 22:32 -43.42366 172.58151 2620 ft 207 kts 19°
2026-05-06 22:32 -43.40980 172.59022 3091 ft 231 kts 20°
2026-05-06 22:32 -43.39484 172.60000 3758 ft 243 kts 19°
2026-05-06 22:32 -43.37960 172.61017 4712 ft 243 kts 17°
2026-05-06 22:33 -43.36393 172.61699 5521 ft 238 kts
2026-05-06 22:33 -43.34779 172.61745 6498 ft 229 kts 347°
2026-05-06 22:33 -43.33244 172.61131 7215 ft 233 kts 331°
2026-05-06 22:33 -43.31919 172.59809 7952 ft 240 kts 315°
2026-05-06 22:34 -43.30968 172.57897 8723 ft 249 kts 297°
2026-05-06 22:34 -43.30500 172.55544 9489 ft 261 kts 285°
2026-05-06 22:34 -43.30170 172.53063 10220 ft 267 kts 285°
2026-05-06 22:34 -43.29802 172.50471 10526 ft 289 kts 285°
2026-05-06 22:35 -43.29397 172.47703 10727 ft 310 kts 285°
2026-05-06 22:35 -43.28963 172.44741 11161 ft 322 kts 285°
2026-05-06 22:35 -43.28523 172.41703 11816 ft 327 kts 285°
2026-05-06 22:35 -43.28083 172.38666 12758 ft 322 kts 285°
2026-05-06 22:36 -43.27532 172.35658 13302 ft 328 kts 292°
2026-05-06 22:36 -43.26587 172.32810 13963 ft 329 kts 302°
2026-05-06 22:36 -43.25289 172.30215 14597 ft 330 kts 309°
2026-05-06 22:36 -43.23856 172.27732 15214 ft 334 kts 309°
2026-05-06 22:37 -43.22446 172.25246 15820 ft 336 kts 309°
2026-05-06 22:37 -43.21009 172.22698 16375 ft 341 kts 309°
2026-05-06 22:37 -43.19551 172.20114 16956 ft 345 kts 309°
2026-05-06 22:37 -43.18078 172.17507 17569 ft 347 kts 309°
2026-05-06 22:38 -43.16590 172.14880 18165 ft 351 kts 309°
2026-05-06 22:38 -43.15084 172.12227 18648 ft 355 kts 308°
2026-05-06 22:38 -43.13563 172.09548 19118 ft 358 kts 309°
2026-05-06 22:38 -43.12036 172.06856 19739 ft 358 kts 308°
2026-05-06 22:39 -43.10498 172.04156 20236 ft 361 kts 309°
2026-05-06 22:39 -43.08972 172.01476 20790 ft 362 kts 309°
2026-05-06 22:39 -43.07420 171.98755 21303 ft 365 kts 309°
2026-05-06 22:39 -43.05848 171.96004 21769 ft 369 kts 309°
2026-05-06 22:40 -43.04261 171.93226 22225 ft 372 kts 309°
2026-05-06 22:40 -43.02666 171.90438 22731 ft 374 kts 310°
2026-05-06 22:40 -43.01052 171.87616 23067 ft 379 kts 310°
2026-05-06 22:40 -42.99417 171.84773 23534 ft 382 kts 310°
2026-05-06 22:41 -42.96126 171.79041 24360 ft 387 kts 310°
2026-05-06 22:41 -42.94488 171.76184 24838 ft 388 kts 310°
2026-05-06 22:41 -42.92822 171.73282 25266 ft 389 kts 310°
2026-05-06 22:42 -42.91149 171.70374 25811 ft 389 kts 309°
2026-05-06 22:42 -42.89485 171.67462 26271 ft 391 kts 308°
2026-05-06 22:42 -42.88013 171.64309 26786 ft 396 kts 301°
2026-05-06 22:42 -42.86875 171.60923 27682 ft 392 kts 294°
2026-05-06 22:43 -42.86034 171.57364 28173 ft 398 kts 288°
2026-05-06 22:43 -42.85374 171.53692 28615 ft 402 kts 288°
2026-05-06 22:43 -42.84699 171.50033 29067 ft 405 kts 289°
2026-05-06 22:43 -42.84002 171.46301 29599 ft 407 kts 289°
2026-05-06 22:44 -42.83301 171.42560 30132 ft 409 kts 289°
2026-05-06 22:44 -42.82594 171.38794 30538 ft 411 kts 289°
2026-05-06 22:44 -42.81885 171.35018 31015 ft 413 kts 289°
2026-05-06 22:44 -42.81171 171.31226 31540 ft 413 kts 289°
2026-05-06 22:45 -42.80456 171.27428 32031 ft 416 kts 289°
2026-05-06 22:45 -42.79733 171.23601 32474 ft 417 kts 289°
2026-05-06 22:45 -42.79017 171.19821 32869 ft 420 kts 289°
2026-05-06 22:45 -42.78285 171.15965 33306 ft 422 kts 289°
2026-05-06 22:46 -42.77551 171.12101 33750 ft 423 kts 289°
2026-05-06 22:46 -42.76809 171.08209 34194 ft 425 kts 289°
2026-05-06 22:46 -42.76065 171.04306 34532 ft 427 kts 289°
2026-05-06 22:46 -42.75315 171.00386 34919 ft 429 kts 288°
2026-05-06 22:47 -42.74566 170.96471 35398 ft 427 kts 288°
2026-05-06 22:47 -42.73827 170.92610 36011 ft 427 kts 288°
2026-05-06 22:47 -42.73078 170.88710 36730 ft 425 kts 288°
2026-05-06 22:47 -42.72331 170.84839 37573 ft 420 kts 288°
2026-05-06 22:48 -42.71592 170.81009 38323 ft 418 kts 288°
2026-05-06 22:48 -42.70852 170.77191 38809 ft 417 kts 287°
2026-05-06 22:48 -42.70113 170.73381 39229 ft 417 kts 287°
2026-05-06 22:48 -42.69371 170.69562 39414 ft 420 kts 287°
2026-05-06 22:49 -42.68621 170.65714 39662 ft 421 kts 287°
2026-05-06 22:49 -42.67878 170.61911 39909 ft 423 kts 287°
2026-05-06 22:49 -42.67121 170.58040 40036 ft 427 kts 287°
2026-05-06 22:50 -42.65581 170.50183 40034 ft 428 kts 288°
2026-05-06 22:50 -42.64047 170.42385 40019 ft 429 kts 288°
2026-05-06 22:51 -42.62497 170.34547 40010 ft 430 kts 288°
2026-05-06 22:51 -42.60959 170.26790 39993 ft 428 kts 288°
2026-05-06 22:52 -42.59402 170.18975 39994 ft 430 kts 288°
2026-05-06 22:52 -42.57833 170.11125 39995 ft 432 kts 288°
2026-05-06 22:53 -42.56251 170.03244 40006 ft 433 kts 288°
2026-05-06 22:53 -42.54673 169.95409 40001 ft 434 kts 288°
2026-05-06 22:54 -42.53077 169.87520 40002 ft 434 kts 288°
2026-05-06 22:54 -42.51477 169.79640 39993 ft 433 kts 288°
2026-05-06 22:55 -42.49873 169.71767 39971 ft 433 kts 288°
2026-05-06 22:55 -42.48275 169.63961 39963 ft 433 kts 288°
2026-05-06 22:56 -42.46659 169.56092 39961 ft 433 kts 288°
2026-05-06 22:56 -42.45041 169.48248 39955 ft 432 kts 288°
2026-05-06 22:57 -42.43422 169.40423 39929 ft 431 kts 289°
2026-05-06 22:57 -42.41496 169.32833 39917 ft 428 kts 295°
2026-05-06 22:58 -42.38953 169.25554 39915 ft 428 kts 298°
2026-05-06 22:58 -42.36316 169.18340 39918 ft 428 kts 298°
2026-05-06 22:59 -42.33689 169.11108 39930 ft 430 kts 298°
2026-05-06 22:59 -42.31061 169.03888 39939 ft 432 kts 298°
2026-05-06 23:00 -42.28402 168.96609 39935 ft 432 kts 298°
2026-05-06 23:00 -42.25736 168.89338 39933 ft 431 kts 298°
2026-05-06 23:01 -42.23072 168.82094 39933 ft 431 kts 298°
2026-05-06 23:01 -42.20392 168.74831 39951 ft 433 kts 298°
2026-05-06 23:02 -42.17724 168.67612 39935 ft 433 kts 298°
2026-05-06 23:02 -42.15036 168.60362 39922 ft 432 kts 298°
2026-05-06 23:03 -42.12351 168.53137 39906 ft 430 kts 298°
2026-05-06 23:03 -42.09672 168.45946 39902 ft 429 kts 298°
2026-05-06 23:04 -42.07006 168.38810 39893 ft 429 kts 298°
2026-05-06 23:04 -42.04317 168.31628 39919 ft 430 kts 298°
2026-05-06 23:05 -42.01617 168.24436 39896 ft 431 kts 298°
2026-05-06 23:05 -41.98915 168.17258 39902 ft 430 kts 298°
2026-05-06 23:06 -41.96226 168.10130 39902 ft 430 kts 298°
2026-05-06 23:06 -41.93514 168.02959 39905 ft 431 kts 298°
2026-05-06 23:07 -41.90794 167.95787 39906 ft 431 kts 298°
2026-05-06 23:07 -41.88082 167.88652 39907 ft 432 kts 298°
2026-05-06 23:08 -41.85346 167.81472 39908 ft 432 kts 299°
2026-05-06 23:08 -41.82606 167.74299 39904 ft 432 kts 299°
2026-05-06 23:09 -41.79859 167.67125 39905 ft 433 kts 299°
2026-05-06 23:09 -41.77106 167.59954 39906 ft 433 kts 299°
2026-05-06 23:10 -41.74364 167.52830 39898 ft 434 kts 299°
2026-05-06 23:10 -41.71596 167.45654 39881 ft 434 kts 299°
2026-05-06 23:11 -41.68829 167.38501 39902 ft 433 kts 299°
2026-05-06 23:11 -41.66061 167.31361 39900 ft 432 kts 299°
2026-05-06 23:12 -41.63306 167.24273 39906 ft 432 kts 299°
2026-05-06 23:12 -41.60528 167.17144 39896 ft 433 kts 299°
2026-05-06 23:13 -41.57746 167.10019 39898 ft 433 kts 299°
2026-05-06 23:13 -41.54961 167.02905 39885 ft 432 kts 299°
2026-05-06 23:14 -41.52170 166.95794 39896 ft 432 kts 299°
2026-05-06 23:14 -41.49395 166.88741 39896 ft 432 kts 299°
2026-05-06 23:15 -41.46594 166.81638 39887 ft 433 kts 299°
2026-05-06 23:15 -41.43787 166.74539 39889 ft 433 kts 299°
2026-05-06 23:16 -41.40977 166.67450 39901 ft 433 kts 299°
2026-05-06 23:16 -41.38178 166.60404 39902 ft 433 kts 299°
2026-05-06 23:17 -41.35357 166.53318 39902 ft 433 kts 299°
2026-05-06 23:17 -41.32534 166.46245 39893 ft 433 kts 300°
2026-05-06 23:18 -41.29703 166.39170 39894 ft 433 kts 300°
2026-05-06 23:18 -41.26867 166.32098 39897 ft 433 kts 300°
2026-05-06 23:19 -41.24045 166.25080 39897 ft 433 kts 300°
2026-05-06 23:19 -41.21203 166.18028 39893 ft 433 kts 300°
2026-05-06 23:20 -41.18354 166.10975 39898 ft 433 kts 300°
2026-05-06 23:20 -41.15502 166.03931 39898 ft 433 kts 300°
2026-05-06 23:21 -41.12665 165.96942 39899 ft 433 kts 300°
2026-05-06 23:21 -41.09806 165.89915 39909 ft 432 kts 300°
2026-05-06 23:22 -41.06947 165.82902 39911 ft 432 kts 300°
2026-05-06 23:22 -41.04085 165.75903 39902 ft 433 kts 300°
2026-05-06 23:23 -41.01216 165.68899 39897 ft 432 kts 300°
2026-05-06 23:23 -40.98363 165.61953 39897 ft 432 kts 300°
2026-05-06 23:24 -40.95491 165.54974 39899 ft 432 kts 300°
2026-05-06 23:24 -40.92611 165.47996 39900 ft 432 kts 300°
2026-05-06 23:25 -40.89728 165.41024 39902 ft 432 kts 300°
2026-05-06 23:25 -40.86859 165.34103 39902 ft 432 kts 300°
2026-05-06 23:26 -40.83966 165.27139 39901 ft 432 kts 300°
2026-05-06 23:26 -40.81070 165.20187 39904 ft 432 kts 300°
2026-05-06 23:27 -40.78171 165.13240 39900 ft 432 kts 300°
2026-05-06 23:27 -40.75286 165.06345 39909 ft 432 kts 300°
2026-05-06 23:28 -40.72379 164.99412 39910 ft 432 kts 300°
2026-05-06 23:28 -40.69466 164.92481 39909 ft 432 kts 300°
2026-05-06 23:29 -40.66552 164.85564 39911 ft 432 kts 301°
2026-05-06 23:29 -40.63651 164.78693 39908 ft 432 kts 301°
2026-05-06 23:30 -40.60728 164.71786 39911 ft 432 kts 301°
2026-05-06 23:30 -40.57801 164.64885 39912 ft 432 kts 301°
2026-05-06 23:31 -40.54871 164.57993 39915 ft 432 kts 301°
2026-05-06 23:31 -40.51935 164.51104 39912 ft 432 kts 301°
2026-05-06 23:32 -40.49017 164.44270 39912 ft 431 kts 301°
2026-05-06 23:32 -40.46079 164.37407 39912 ft 431 kts 301°
2026-05-06 23:33 -40.43133 164.30539 39916 ft 432 kts 301°
2026-05-06 23:33 -40.40184 164.23679 39915 ft 432 kts 301°
2026-05-06 23:34 -40.37249 164.16868 39913 ft 432 kts 301°
2026-05-06 23:34 -40.34292 164.10022 39913 ft 431 kts 301°
2026-05-06 23:35 -40.31330 164.03180 39917 ft 431 kts 301°
2026-05-06 23:35 -40.28367 163.96348 39918 ft 432 kts 301°
2026-05-06 23:36 -40.25416 163.89563 39917 ft 432 kts 301°
2026-05-06 23:36 -40.22442 163.82736 39916 ft 432 kts 301°
2026-05-06 23:37 -40.19467 163.75924 39913 ft 431 kts 301°
2026-05-06 23:37 -40.16487 163.69115 39919 ft 431 kts 301°
2026-05-06 23:38 -40.13504 163.62315 39918 ft 431 kts 301°
2026-05-06 23:38 -40.10538 163.55569 39913 ft 431 kts 301°
2026-05-06 23:39 -40.07546 163.48778 39917 ft 431 kts 301°
2026-05-06 23:39 -40.04552 163.41998 39916 ft 431 kts 301°
2026-05-06 23:40 -40.01556 163.35229 39912 ft 431 kts 301°
2026-05-06 23:40 -39.98576 163.28509 39923 ft 431 kts 301°
2026-05-06 23:41 -39.95572 163.21746 39912 ft 431 kts 301°
2026-05-06 23:41 -39.92566 163.14988 39916 ft 431 kts 301°
2026-05-06 23:42 -39.89556 163.08233 39921 ft 431 kts 301°
2026-05-06 23:42 -39.86562 163.01528 39915 ft 431 kts 302°
2026-05-06 23:43 -39.83495 162.94839 39922 ft 430 kts 302°
2026-05-06 23:43 -39.80483 162.88106 39924 ft 431 kts 301°
2026-05-06 23:44 -39.77490 162.81416 39921 ft 431 kts 302°
2026-05-06 23:44 -39.74465 162.74697 39918 ft 430 kts 302°
2026-05-06 23:45 -39.71435 162.67991 39919 ft 430 kts 302°
2026-05-06 23:45 -39.68401 162.61296 39913 ft 430 kts 302°
2026-05-06 23:46 -39.65358 162.54600 39922 ft 431 kts 302°
2026-05-06 23:46 -39.62332 162.47954 39917 ft 431 kts 302°
2026-05-06 23:47 -39.59283 162.41269 39915 ft 431 kts 302°
2026-05-06 23:47 -39.56229 162.34591 39918 ft 431 kts 302°
2026-05-06 23:48 -39.53172 162.27920 39904 ft 430 kts 302°
2026-05-06 23:48 -39.50134 162.21303 39919 ft 430 kts 302°
2026-05-06 23:49 -39.47072 162.14649 39920 ft 431 kts 302°
2026-05-06 23:49 -39.44004 162.07996 39920 ft 431 kts 302°
2026-05-06 23:50 -39.40932 162.01347 39924 ft 431 kts 302°
2026-05-06 23:50 -39.36338 161.91432 39922 ft 430 kts 302°
2026-05-06 23:51 -39.33255 161.84797 39920 ft 430 kts 302°
2026-05-06 23:51 -39.30173 161.78175 39920 ft 430 kts 302°
2026-05-06 23:52 -39.27085 161.71557 39921 ft 430 kts 302°
2026-05-06 23:52 -39.24016 161.64990 39921 ft 430 kts 302°
2026-05-06 23:53 -39.20920 161.58383 39921 ft 430 kts 302°
2026-05-06 23:53 -39.17819 161.51780 39924 ft 431 kts 302°
2026-05-06 23:54 -39.14714 161.45182 39923 ft 431 kts 302°
2026-05-06 23:54 -39.11627 161.38636 39920 ft 430 kts 302°
2026-05-06 23:55 -39.08516 161.32052 39923 ft 430 kts 302°
2026-05-06 23:55 -39.05403 161.25477 39922 ft 430 kts 302°
2026-05-06 23:56 -39.02286 161.18907 39916 ft 430 kts 303°
2026-05-06 23:56 -38.99185 161.12384 39920 ft 430 kts 303°
2026-05-06 23:57 -38.96061 161.05829 39919 ft 430 kts 303°
2026-05-06 23:57 -38.92934 160.99279 39921 ft 430 kts 303°
2026-05-06 23:58 -38.89804 160.92735 39918 ft 430 kts 303°
2026-05-06 23:58 -38.86667 160.86193 39933 ft 430 kts 303°
2026-05-06 23:59 -38.83554 160.79710 39932 ft 430 kts 303°
2026-05-06 23:59 -38.80413 160.73185 39929 ft 430 kts 303°
2026-05-07 00:00 -38.77272 160.66673 39927 ft 430 kts 303°
2026-05-07 00:00 -38.74657 160.61260 39915 ft 430 kts 303°
2026-05-07 00:01 -38.71001 160.53710 39925 ft 430 kts 303°
2026-05-07 00:01 -38.67848 160.47211 39917 ft 429 kts 303°
2026-05-07 00:02 -38.64694 160.40724 39916 ft 429 kts 303°
2026-05-07 00:02 -38.61537 160.34245 39912 ft 429 kts 303°
2026-05-07 00:03 -38.58398 160.27816 39913 ft 429 kts 303°
2026-05-07 00:03 -38.55237 160.21353 39911 ft 429 kts 303°
2026-05-07 00:04 -38.52072 160.14897 39917 ft 428 kts 303°
2026-05-07 00:04 -38.48911 160.08459 39915 ft 428 kts 303°
2026-05-07 00:05 -38.45766 160.02070 39914 ft 428 kts 303°
2026-05-07 00:05 -38.42602 159.95653 39909 ft 427 kts 303°
2026-05-07 00:06 -38.39437 159.89245 39908 ft 427 kts 303°
2026-05-07 00:06 -38.36265 159.82839 39909 ft 427 kts 303°
2026-05-07 00:07 -38.33116 159.76490 39906 ft 427 kts 303°
2026-05-07 00:07 -38.29944 159.70107 39905 ft 426 kts 303°
2026-05-07 00:08 -38.26768 159.63729 39903 ft 426 kts 303°
2026-05-07 00:08 -38.23592 159.57363 39900 ft 426 kts 303°
2026-05-07 00:09 -38.20415 159.51007 39909 ft 426 kts 303°
2026-05-07 00:09 -38.17256 159.44702 39898 ft 425 kts 303°
2026-05-07 00:10 -38.14077 159.38365 39896 ft 425 kts 303°
2026-05-07 00:10 -38.10894 159.32035 39897 ft 425 kts 303°
2026-05-07 00:11 -38.07706 159.25708 39890 ft 425 kts 303°
2026-05-07 00:11 -38.04535 159.19426 39896 ft 425 kts 303°
2026-05-07 00:12 -38.01338 159.13104 39904 ft 426 kts 303°
2026-05-07 00:12 -37.98140 159.06793 39893 ft 425 kts 303°
2026-05-07 00:13 -37.94943 159.00496 39892 ft 425 kts 303°
2026-05-07 00:13 -37.91743 158.94205 39886 ft 425 kts 303°
2026-05-07 00:14 -37.88562 158.87963 39886 ft 425 kts 303°
2026-05-07 00:14 -37.85358 158.81689 39888 ft 424 kts 303°
2026-05-07 00:15 -37.82155 158.75429 39889 ft 423 kts 303°
2026-05-07 00:15 -37.78955 158.69186 39881 ft 423 kts 303°
2026-05-07 00:16 -37.75778 158.62997 39881 ft 423 kts 303°
2026-05-07 00:16 -37.72574 158.56771 39877 ft 422 kts 303°
2026-05-07 00:17 -37.69369 158.50553 39874 ft 422 kts 303°
2026-05-07 00:17 -37.66159 158.44338 39875 ft 422 kts 303°
2026-05-07 00:18 -37.62968 158.38170 39876 ft 423 kts 303°
2026-05-07 00:18 -37.59754 158.31965 39876 ft 423 kts 303°
2026-05-07 00:19 -37.56535 158.25758 39878 ft 423 kts 304°
2026-05-07 00:19 -37.53314 158.19559 39888 ft 423 kts 304°
2026-05-07 00:20 -37.50062 158.13439 39876 ft 423 kts 304°
2026-05-07 00:20 -37.46849 158.07243 39876 ft 422 kts 303°
2026-05-07 00:21 -37.43630 158.01058 39877 ft 422 kts 303°
2026-05-07 00:21 -37.40401 157.94890 39878 ft 422 kts 304°
2026-05-07 00:22 -37.37185 157.88767 39872 ft 422 kts 304°
2026-05-07 00:22 -37.33945 157.82611 39868 ft 423 kts 304°
2026-05-07 00:23 -37.30699 157.76456 39860 ft 423 kts 304°
2026-05-07 00:23 -37.27446 157.70298 39864 ft 423 kts 304°
2026-05-07 00:24 -37.24192 157.64149 39861 ft 423 kts 304°
2026-05-07 00:24 -37.20952 157.58038 39867 ft 423 kts 304°
2026-05-07 00:25 -37.17684 157.51889 39877 ft 424 kts 304°
2026-05-07 00:25 -37.14969 157.46785 39874 ft 424 kts 304°
2026-05-07 00:26 -37.11149 157.39619 39863 ft 422 kts 304°
2026-05-07 00:26 -37.07904 157.33543 39866 ft 422 kts 304°
2026-05-07 00:27 -37.04635 157.27434 39863 ft 422 kts 304°
2026-05-07 00:27 -37.01370 157.21343 39882 ft 422 kts 304°
2026-05-07 00:28 -36.98096 157.15248 39858 ft 422 kts 304°
2026-05-07 00:28 -36.94825 157.09167 39854 ft 421 kts 304°
2026-05-07 00:29 -36.91575 157.03139 39854 ft 421 kts 304°
2026-05-07 00:30 -36.85028 156.91023 39854 ft 421 kts 304°
2026-05-07 00:30 -36.81749 156.84975 39870 ft 420 kts 303°
2026-05-07 00:31 -36.78498 156.78986 39863 ft 419 kts 303°
2026-05-07 00:31 -36.75230 156.72976 39852 ft 417 kts 303°
2026-05-07 00:32 -36.71974 156.67000 39848 ft 416 kts 303°
2026-05-07 00:32 -36.68739 156.61071 39842 ft 416 kts 303°
2026-05-07 00:33 -36.65486 156.55119 39855 ft 416 kts 304°
2026-05-07 00:33 -36.62231 156.49175 39849 ft 415 kts 304°
2026-05-07 00:34 -36.58976 156.43244 39846 ft 415 kts 304°
2026-05-07 00:34 -36.55722 156.37323 39841 ft 415 kts 304°
2026-05-07 00:35 -36.52486 156.31445 39838 ft 415 kts 304°
2026-05-07 00:35 -36.49226 156.25533 39839 ft 415 kts 304°
2026-05-07 00:36 -36.45963 156.19626 39841 ft 415 kts 304°
2026-05-07 00:36 -36.42694 156.13719 39843 ft 415 kts 304°
2026-05-07 00:37 -36.39439 156.07848 39845 ft 415 kts 304°
2026-05-07 00:37 -36.36165 156.01953 39843 ft 415 kts 304°
2026-05-07 00:38 -36.32888 155.96061 39851 ft 415 kts 304°
2026-05-07 00:38 -36.30161 155.91166 39841 ft 415 kts 304°
2026-05-07 00:39 -36.26341 155.84322 39841 ft 415 kts 304°
2026-05-07 00:39 -36.23051 155.78438 39843 ft 416 kts 304°
2026-05-07 00:40 -36.19756 155.72555 39843 ft 416 kts 304°
2026-05-07 00:40 -36.17015 155.67670 39847 ft 416 kts 304°
2026-05-07 00:41 -36.13174 155.60835 39864 ft 416 kts 304°
2026-05-07 00:41 -36.09860 155.54948 39837 ft 417 kts 304°
2026-05-07 00:42 -36.07102 155.50056 39840 ft 418 kts 304°
2026-05-07 00:42 -36.03775 155.44165 39840 ft 418 kts 304°
2026-05-07 00:43 -35.99910 155.37335 39856 ft 417 kts 304°
2026-05-07 00:43 -35.97123 155.32418 39854 ft 417 kts 304°
2026-05-07 00:44 -35.93818 155.26595 39853 ft 417 kts 304°
2026-05-07 00:44 -35.90487 155.20738 39853 ft 417 kts 304°
2026-05-07 00:45 -35.86622 155.13952 39849 ft 416 kts 304°
2026-05-07 00:45 -35.83850 155.09094 39848 ft 416 kts 304°
2026-05-07 00:46 -35.80517 155.03262 39844 ft 416 kts 304°
2026-05-07 00:46 -35.77186 154.97444 39838 ft 416 kts 304°
2026-05-07 00:47 -35.73844 154.91615 39844 ft 416 kts 304°
2026-05-07 00:47 -35.70504 154.85800 39845 ft 416 kts 304°
2026-05-07 00:48 -35.67180 154.80022 39849 ft 417 kts 304°
2026-05-07 00:48 -35.63834 154.74209 39851 ft 417 kts 304°
2026-05-07 00:49 -35.60420 154.68448 39855 ft 417 kts 307°
2026-05-07 00:49 -35.56682 154.63042 39858 ft 418 kts 309°
2026-05-07 00:50 -35.52891 154.57621 39862 ft 418 kts 309°
2026-05-07 00:50 -35.49107 154.52201 39862 ft 418 kts 309°
2026-05-07 00:51 -35.45316 154.46785 39871 ft 418 kts 309°
2026-05-07 00:51 -35.41546 154.41411 39871 ft 418 kts 309°
2026-05-07 00:52 -35.37752 154.36011 39870 ft 418 kts 309°
2026-05-07 00:52 -35.33947 154.30603 39864 ft 419 kts 309°
2026-05-07 00:53 -35.30139 154.25201 39876 ft 419 kts 309°
2026-05-07 00:53 -35.26331 154.19808 39880 ft 419 kts 309°
2026-05-07 00:54 -35.22543 154.14449 39885 ft 419 kts 309°
2026-05-07 00:54 -35.18730 154.09065 39888 ft 419 kts 309°
2026-05-07 00:55 -35.14908 154.03676 39897 ft 419 kts 309°
2026-05-07 00:55 -35.11092 153.98304 39893 ft 419 kts 309°
2026-05-07 00:56 -35.07295 153.92968 39891 ft 419 kts 309°
2026-05-07 00:56 -35.03480 153.87613 39895 ft 418 kts 309°
2026-05-07 00:57 -34.99658 153.82258 39899 ft 418 kts 309°
2026-05-07 00:57 -34.95839 153.76916 39909 ft 417 kts 309°
2026-05-07 00:58 -34.92055 153.71631 39914 ft 417 kts 309°
2026-05-07 00:58 -34.88240 153.66310 39914 ft 417 kts 309°
2026-05-07 00:59 -34.82514 153.58337 39918 ft 416 kts 309°
2026-05-07 01:00 -34.78703 153.53042 39916 ft 416 kts 309°
2026-05-07 01:00 -34.74917 153.47790 39927 ft 416 kts 309°
2026-05-07 01:01 -34.71096 153.42497 39941 ft 416 kts 309°
2026-05-07 01:01 -34.67285 153.37228 39852 ft 414 kts 309°
2026-05-07 01:01 -34.65398 153.34624 39634 ft 408 kts 309°
2026-05-07 01:02 -34.63532 153.32051 39364 ft 405 kts 308°
2026-05-07 01:02 -34.61693 153.29514 39147 ft 404 kts 308°
2026-05-07 01:02 -34.59837 153.26953 38924 ft 405 kts 308°
2026-05-07 01:02 -34.57979 153.24393 38636 ft 403 kts 308°
2026-05-07 01:03 -34.56119 153.21834 37921 ft 405 kts 308°
2026-05-07 01:03 -34.54255 153.19270 37014 ft 407 kts 308°
2026-05-07 01:03 -34.52380 153.16693 36315 ft 404 kts 309°
2026-05-07 01:03 -34.50523 153.14147 35533 ft 403 kts 309°
2026-05-07 01:04 -34.48677 153.11615 34730 ft 402 kts 309°
2026-05-07 01:04 -34.46823 153.09072 34022 ft 399 kts 309°
2026-05-07 01:04 -34.45036 153.06624 33530 ft 389 kts 310°
2026-05-07 01:04 -34.43256 153.04189 32984 ft 381 kts 310°
2026-05-07 01:05 -34.41521 153.01817 32498 ft 373 kts 310°
2026-05-07 01:05 -34.39816 152.99484 31980 ft 366 kts 310°
2026-05-07 01:05 -34.38149 152.97205 31490 ft 359 kts 310°
2026-05-07 01:05 -34.36508 152.94963 31018 ft 353 kts 310°
2026-05-07 01:06 -34.34899 152.92767 30544 ft 347 kts 310°
2026-05-07 01:06 -34.33327 152.90622 30086 ft 341 kts 311°
2026-05-07 01:06 -34.31772 152.88501 29593 ft 334 kts 311°
2026-05-07 01:06 -34.30242 152.86416 29097 ft 327 kts 310°
2026-05-07 01:07 -34.28738 152.84368 28697 ft 325 kts 310°
2026-05-07 01:07 -34.27246 152.82338 28285 ft 321 kts 310°
2026-05-07 01:07 -34.25771 152.80334 27859 ft 316 kts 310°
2026-05-07 01:07 -34.24326 152.78369 27435 ft 310 kts 310°
2026-05-07 01:08 -34.22896 152.76425 27026 ft 308 kts 310°
2026-05-07 01:08 -34.21472 152.74490 26610 ft 309 kts 310°
2026-05-07 01:08 -34.20063 152.72577 26198 ft 309 kts 310°
2026-05-07 01:08 -34.18640 152.70646 25784 ft 308 kts 310°
2026-05-07 01:09 -34.17216 152.68715 25385 ft 307 kts 310°
2026-05-07 01:09 -34.15797 152.66794 24986 ft 306 kts 310°
2026-05-07 01:09 -34.14386 152.64884 24573 ft 305 kts 310°
2026-05-07 01:09 -34.12977 152.62976 24175 ft 304 kts 310°
2026-05-07 01:10 -34.11571 152.61073 23780 ft 304 kts 310°
2026-05-07 01:10 -34.10204 152.59184 23349 ft 302 kts 307°
2026-05-07 01:10 -34.09071 152.57077 22961 ft 300 kts 298°
2026-05-07 01:10 -34.08270 152.54760 22550 ft 301 kts 291°
2026-05-07 01:11 -34.07806 152.52286 22183 ft 304 kts 283°
2026-05-07 01:11 -34.07586 152.49754 21745 ft 301 kts 281°
2026-05-07 01:11 -34.07363 152.47266 21342 ft 297 kts 282°
2026-05-07 01:11 -34.07135 152.44831 20959 ft 296 kts 282°
2026-05-07 01:12 -34.06901 152.42370 20563 ft 295 kts 282°
2026-05-07 01:12 -34.06668 152.39925 20194 ft 293 kts 282°
2026-05-07 01:12 -34.06437 152.37488 19803 ft 292 kts 282°
2026-05-07 01:12 -34.06206 152.35056 19429 ft 291 kts 282°
2026-05-07 01:13 -34.05975 152.32635 19043 ft 290 kts 282°
2026-05-07 01:13 -34.05746 152.30227 18658 ft 288 kts 282°
2026-05-07 01:13 -34.05517 152.27829 18277 ft 287 kts 281°
2026-05-07 01:13 -34.05289 152.25443 17876 ft 286 kts 281°
2026-05-07 01:14 -34.05061 152.23064 17505 ft 286 kts 281°
2026-05-07 01:14 -34.04833 152.20688 17129 ft 285 kts 281°
2026-05-07 01:14 -34.04605 152.18316 16755 ft 284 kts 281°
2026-05-07 01:14 -34.04380 152.15989 16386 ft 283 kts 281°
2026-05-07 01:15 -34.04153 152.13631 16024 ft 282 kts 281°
2026-05-07 01:15 -34.03926 152.11287 15660 ft 282 kts 281°
2026-05-07 01:15 -34.03697 152.08938 15296 ft 282 kts 281°
2026-05-07 01:15 -34.03471 152.06602 14939 ft 281 kts 281°
2026-05-07 01:16 -34.03241 152.04263 14562 ft 280 kts 281°
2026-05-07 01:16 -34.03008 152.01941 14209 ft 279 kts 281°
2026-05-07 01:16 -34.02774 151.99625 13854 ft 279 kts 281°
2026-05-07 01:16 -34.02539 151.97295 13476 ft 278 kts 281°
2026-05-07 01:17 -34.02309 151.95015 13128 ft 278 kts 281°
2026-05-07 01:17 -34.02075 151.92700 12778 ft 277 kts 281°
2026-05-07 01:17 -34.01844 151.90414 12428 ft 275 kts 281°
2026-05-07 01:17 -34.01612 151.88125 12091 ft 273 kts 281°
2026-05-07 01:18 -34.01382 151.85851 11737 ft 273 kts 281°
2026-05-07 01:18 -34.01151 151.83584 11375 ft 272 kts 281°
2026-05-07 01:18 -34.00920 151.81316 11044 ft 272 kts 281°
2026-05-07 01:18 -34.00689 151.79058 10701 ft 271 kts 280°
2026-05-07 01:19 -34.00463 151.76840 10492 ft 267 kts 280°
2026-05-07 01:19 -34.00244 151.74678 10387 ft 254 kts 280°
2026-05-07 01:19 -34.00032 151.72592 10153 ft 250 kts 281°
2026-05-07 01:19 -33.99819 151.70519 9921 ft 249 kts 281°
2026-05-07 01:20 -33.99607 151.68466 9820 ft 246 kts 281°
2026-05-07 01:20 -33.99394 151.66408 9669 ft 249 kts 281°
2026-05-07 01:20 -33.99179 151.64341 9539 ft 249 kts 280°
2026-05-07 01:20 -33.98963 151.62271 9405 ft 246 kts 280°
2026-05-07 01:21 -33.98752 151.60237 9269 ft 243 kts 280°
2026-05-07 01:21 -33.98546 151.58254 9036 ft 241 kts 279°
2026-05-07 01:21 -33.98339 151.56261 8822 ft 239 kts 279°
2026-05-07 01:21 -33.98130 151.54262 8626 ft 241 kts 279°
2026-05-07 01:22 -33.97919 151.52257 8386 ft 240 kts 278°
2026-05-07 01:22 -33.97711 151.50266 8177 ft 240 kts 278°
2026-05-07 01:22 -33.97504 151.48276 7951 ft 239 kts 278°
2026-05-07 01:22 -33.97299 151.46317 7743 ft 239 kts 277°
2026-05-07 01:23 -33.97092 151.44332 7536 ft 238 kts 277°
2026-05-07 01:23 -33.96885 151.42366 7303 ft 236 kts 277°
2026-05-07 01:23 -33.96678 151.40402 7110 ft 236 kts 277°
2026-05-07 01:23 -33.96471 151.38445 6884 ft 234 kts 276°
2026-05-07 01:24 -33.96238 151.36518 6716 ft 230 kts 283°
2026-05-07 01:24 -33.95441 151.34867 6629 ft 231 kts 310°
2026-05-07 01:24 -33.94007 151.33906 6445 ft 252 kts 338°
2026-05-07 01:24 -33.92167 151.33858 6172 ft 278 kts
2026-05-07 01:25 -33.90384 151.34847 6021 ft 291 kts 32°
2026-05-07 01:25 -33.89078 151.36723 6009 ft 299 kts 59°
2026-05-07 01:25 -33.88513 151.39116 6013 ft 305 kts 86°
2026-05-07 01:25 -33.88795 151.41624 6012 ft 303 kts 112°
2026-05-07 01:26 -33.89879 151.43744 6004 ft 294 kts 140°
2026-05-07 01:26 -33.91530 151.45078 6009 ft 281 kts 166°
2026-05-07 01:26 -33.93391 151.45404 6006 ft 265 kts 193°
2026-05-07 01:26 -33.95155 151.44921 6017 ft 261 kts 198°
2026-05-07 01:27 -33.96884 151.44357 6004 ft 252 kts 214°
2026-05-07 01:27 -33.98134 151.43025 5955 ft 234 kts 241°
2026-05-07 01:27 -33.98627 151.41270 5874 ft 219 kts 266°
2026-05-07 01:27 -33.98289 151.39536 5791 ft 217 kts 295°
2026-05-07 01:28 -33.97201 151.38245 5720 ft 231 kts 323°
2026-05-07 01:28 -33.95597 151.37746 5477 ft 251 kts 351°
2026-05-07 01:28 -33.93819 151.37956 4807 ft 259 kts 359°
2026-05-07 01:28 -33.92031 151.38018 4036 ft 253 kts 341°
2026-05-07 01:29 -33.90540 151.37157 3638 ft 229 kts 310°
2026-05-07 01:29 -33.89836 151.35559 3150 ft 214 kts 272°
2026-05-07 01:29 -33.90093 151.33846 2706 ft 207 kts 251°
2026-05-07 01:29 -33.90572 151.32268 2337 ft 199 kts 251°
2026-05-07 01:30 -33.90974 151.30751 2075 ft 181 kts 253°
2026-05-07 01:30 -33.91300 151.29366 1865 ft 158 kts 253°
2026-05-07 01:30 -33.91574 151.28228 1671 ft 129 kts 254°
2026-05-07 01:30 -33.91808 151.27231 1478 ft 119 kts 253°
2026-05-07 01:31 -33.92033 151.26285 1321 ft 116 kts 256°
2026-05-07 01:31 -33.92251 151.25367 1161 ft 116 kts 256°
2026-05-07 01:31 -33.92483 151.24413 1008 ft 119 kts 256°
2026-05-07 01:31 -33.92702 151.23458 841 ft 115 kts 256°
2026-05-07 01:32 -33.92923 151.22539 683 ft 116 kts 255°
2026-05-07 01:32 -33.93142 151.21593 537 ft 116 kts 254°
2026-05-07 01:32 -33.93370 151.20658 397 ft 117 kts 255°
2026-05-07 01:32 -33.93592 151.19715 224 ft 116 kts 255°
2026-05-07 01:33 -33.93806 151.18772 63 ft 116 kts 255°
2026-05-07 01:33 -33.93998 151.17936 33 ft 87 kts 253°
2026-05-07 01:33 -33.94106 151.17499 32 ft 22 kts 254°
2026-05-07 01:33 -33.94138 151.17362 33 ft 13 kts 254°
2026-05-07 01:34 -33.94144 151.17289 33 ft 5 kts 298°
2026-05-07 01:34 -33.94115 151.17263 34 ft 6 kts 340°
2026-05-07 01:34 -33.94088 151.17252 34 ft 6 kts 347°